Time,TemperatureF,DewpointF,PressureIn,WindDirection,WindDirectionDegrees,WindSpeedMPH,WindSpeedGustMPH,Humidity,HourlyPrecipIn,Conditions,Clouds,dailyrainin,SoftwareType,DateUTC
2013-02-07 00:02:00,17.0,-2.0,30.23,WNW,295,10.0,19.0,43,0.00,,,0.06,,2013-02-07 05:02:00,
2013-02-07 00:12:00,17.0,-2.0,30.23,WNW,295,10.0,19.0,43,0.00,,,0.06,,2013-02-07 05:12:00,
2013-02-07 00:21:00,16.0,-2.0,30.24,NNW,328,8.0,14.0,45,0.00,,,0.06,,2013-02-07 05:21:00,
2013-02-07 00:32:00,15.0,0.0,30.25,WNW,298,7.0,15.0,51,0.00,,,0.06,,2013-02-07 05:32:00,
2013-02-07 00:42:00,15.0,0.0,30.25,WNW,298,7.0,15.0,51,0.00,,,0.06,,2013-02-07 05:42:00,
2013-02-07 00:52:00,15.0,0.0,30.26,NW,321,6.0,12.0,50,0.00,,,0.06,,2013-02-07 05:52:00,
2013-02-07 01:02:00,14.0,-1.0,30.26,NW,322,7.0,14.0,51,0.00,,,0.06,,2013-02-07 06:02:00,
2013-02-07 01:11:00,14.0,-1.0,30.26,NW,322,7.0,14.0,51,0.00,,,0.06,,2013-02-07 06:11:00,
2013-02-07 01:22:00,13.0,-3.0,30.27,NW,315,3.0,11.0,49,0.00,,,0.06,,2013-02-07 06:22:00,
2013-02-07 01:32:00,12.0,-3.0,30.27,North,360,4.0,10.0,50,0.00,,,0.06,,2013-02-07 06:32:00,
2013-02-07 01:43:00,12.0,-3.0,30.27,North,360,4.0,10.0,50,0.00,,,0.06,,2013-02-07 06:43:00,
2013-02-07 01:52:00,12.0,-3.0,30.28,NW,323,4.0,9.0,49,0.00,,,0.06,,2013-02-07 06:52:00,
2013-02-07 02:02:00,11.0,-5.0,30.29,WNW,298,3.0,9.0,48,0.00,,,0.06,,2013-02-07 07:02:00,
2013-02-07 02:11:00,11.0,-4.0,30.29,NW,320,7.0,14.0,50,0.00,,,0.06,,2013-02-07 07:11:00,
2013-02-07 02:22:00,11.0,-4.0,30.29,NW,320,7.0,14.0,50,0.00,,,0.06,,2013-02-07 07:22:00,
2013-02-07 02:32:00,11.0,-5.0,30.30,NW,311,6.0,10.0,47,0.00,,,0.06,,2013-02-07 07:32:00,
2013-02-07 02:42:00,11.0,-5.0,30.30,NW,311,6.0,10.0,47,0.00,,,0.06,,2013-02-07 07:42:00,
2013-02-07 02:52:00,10.0,-6.0,30.31,WNW,300,7.0,11.0,47,0.00,,,0.06,,2013-02-07 07:52:00,
2013-02-07 03:02:00,10.0,-5.0,30.31,NNW,335,6.0,14.0,49,0.00,,,0.06,,2013-02-07 08:02:00,
2013-02-07 03:11:00,10.0,-5.0,30.31,NNW,335,6.0,14.0,49,0.00,,,0.06,,2013-02-07 08:11:00,
2013-02-07 03:22:00,10.0,-7.0,30.32,NW,309,9.0,17.0,45,0.00,,,0.06,,2013-02-07 08:22:00,
2013-02-07 03:32:00,9.0,-9.0,30.33,NW,313,8.0,14.0,43,0.00,,,0.06,,2013-02-07 08:32:00,
2013-02-07 03:52:00,9.0,-10.0,30.33,NNW,331,9.0,16.0,41,0.00,,,0.06,,2013-02-07 08:52:00,
2013-02-07 04:02:00,9.0,-9.0,30.34,NW,313,7.0,16.0,43,0.00,,,0.06,,2013-02-07 09:02:00,
2013-02-07 04:21:00,9.0,-8.0,30.34,NW,315,6.0,11.0,44,0.00,,,0.06,,2013-02-07 09:21:00,
2013-02-07 04:32:00,8.0,-9.0,30.35,NW,315,2.0,5.0,44,0.00,,,0.06,,2013-02-07 09:32:00,
2013-02-07 04:42:00,8.0,-9.0,30.35,NW,315,2.0,5.0,44,0.00,,,0.06,,2013-02-07 09:42:00,
2013-02-07 04:52:00,7.0,-9.0,30.35,NNW,337,2.0,3.0,47,0.00,,,0.06,,2013-02-07 09:52:00,
2013-02-07 05:02:00,5.0,-8.0,30.37,NNW,328,4.0,8.0,53,0.00,,,0.06,,2013-02-07 10:02:00,
2013-02-07 05:11:00,5.0,-8.0,30.37,NNW,328,4.0,8.0,53,0.00,,,0.06,,2013-02-07 10:11:00,
2013-02-07 05:22:00,5.0,-8.0,30.37,NW,318,3.0,7.0,53,0.00,,,0.06,,2013-02-07 10:22:00,
2013-02-07 05:32:00,5.0,-9.0,30.38,NW,313,5.0,9.0,52,0.00,,,0.06,,2013-02-07 10:32:00,
2013-02-07 05:42:00,5.0,-9.0,30.38,NW,313,5.0,9.0,52,0.00,,,0.06,,2013-02-07 10:42:00,
2013-02-07 05:51:00,5.0,-10.0,30.39,WNW,299,3.0,7.0,50,0.00,,,0.06,,2013-02-07 10:51:00,
2013-02-07 06:01:00,4.0,-9.0,30.42,NW,317,6.0,9.0,54,0.00,,,0.06,,2013-02-07 11:01:00,
2013-02-07 06:11:00,4.0,-9.0,30.42,NW,317,6.0,9.0,54,0.00,,,0.06,,2013-02-07 11:11:00,
2013-02-07 06:23:00,5.0,-9.0,30.42,NW,315,6.0,10.0,52,0.00,,,0.06,,2013-02-07 11:23:00,
2013-02-07 06:32:00,5.0,-11.0,30.43,WNW,296,7.0,12.0,47,0.00,,,0.06,,2013-02-07 11:32:00,
2013-02-07 06:44:00,5.0,-11.0,30.43,WNW,296,7.0,12.0,47,0.00,,,0.06,,2013-02-07 11:44:00,
2013-02-07 06:52:00,5.0,-12.0,30.43,WNW,291,9.0,16.0,45,0.00,,,0.06,,2013-02-07 11:52:00,
2013-02-07 07:02:00,5.0,-13.0,30.44,NNW,345,6.0,10.0,43,0.00,,,0.06,,2013-02-07 12:02:00,
2013-02-07 07:22:00,4.0,-12.0,30.45,NNW,345,3.0,10.0,47,0.00,,,0.06,,2013-02-07 12:22:00,
2013-02-07 07:33:00,3.0,-11.0,30.46,NNW,336,4.0,7.0,51,0.00,,,0.06,,2013-02-07 12:33:00,
2013-02-07 07:42:00,3.0,-11.0,30.46,NNW,336,4.0,7.0,51,0.00,,,0.06,,2013-02-07 12:42:00,
2013-02-07 07:52:00,4.0,-10.0,30.46,NNW,331,4.0,10.0,50,0.00,,,0.06,,2013-02-07 12:52:00,
2013-02-07 08:03:00,5.0,-10.0,30.47,NNW,338,11.0,14.0,48,0.00,,,0.06,,2013-02-07 13:03:00,
2013-02-07 08:12:00,5.0,-10.0,30.47,NNW,338,11.0,14.0,48,0.00,,,0.06,,2013-02-07 13:12:00,
2013-02-07 08:22:00,6.0,-11.0,30.48,NNW,329,8.0,12.0,45,0.00,,,0.06,,2013-02-07 13:22:00,
2013-02-07 08:32:00,7.0,-12.0,30.48,NNW,346,7.0,13.0,41,0.00,,,0.06,,2013-02-07 13:32:00,
2013-02-07 08:42:00,7.0,-12.0,30.48,NNW,346,7.0,13.0,41,0.00,,,0.06,,2013-02-07 13:42:00,
2013-02-07 08:52:00,7.0,-11.0,30.49,NW,326,9.0,17.0,42,0.00,,,0.06,,2013-02-07 13:52:00,
2013-02-07 09:01:00,8.0,-14.0,30.50,NW,325,10.0,18.0,35,0.00,,,0.06,,2013-02-07 14:01:00,
2013-02-07 09:22:00,8.0,-14.0,30.50,NW,324,14.0,20.0,34,0.00,,,0.06,,2013-02-07 14:22:00,
2013-02-07 09:32:00,9.0,-15.0,30.51,NW,315,13.0,22.0,31,0.00,,,0.06,,2013-02-07 14:32:00,
2013-02-07 09:52:00,10.0,-15.0,30.51,WNW,301,10.0,18.0,30,0.00,,,0.06,,2013-02-07 14:52:00,
2013-02-07 10:02:00,10.0,-17.0,30.52,West,278,10.0,17.0,28,0.00,,,0.06,,2013-02-07 15:02:00,
2013-02-07 10:22:00,10.0,-17.0,30.53,NNW,329,9.0,23.0,28,0.00,,,0.06,,2013-02-07 15:22:00,
2013-02-07 10:32:00,11.0,-15.0,30.53,NW,317,12.0,20.0,29,0.00,,,0.06,,2013-02-07 15:32:00,
2013-02-07 10:52:00,11.0,-16.0,30.54,WNW,300,12.0,21.0,28,0.00,,,0.06,,2013-02-07 15:52:00,
2013-02-07 11:01:00,11.0,-16.0,30.54,NNW,342,12.0,18.0,27,0.00,,,0.06,,2013-02-07 16:01:00,
2013-02-07 11:22:00,11.0,-16.0,30.54,NNW,345,9.0,18.0,27,0.00,,,0.06,,2013-02-07 16:22:00,
2013-02-07 11:32:00,12.0,-15.0,30.54,NNW,336,10.0,20.0,27,0.00,,,0.06,,2013-02-07 16:32:00,
2013-02-07 11:52:00,11.0,-16.0,30.53,NW,322,10.0,19.0,27,0.00,,,0.06,,2013-02-07 16:52:00,
2013-02-07 12:01:00,12.0,-17.0,30.53,NW,319,11.0,19.0,25,0.00,,,0.06,,2013-02-07 17:01:00,
2013-02-07 12:21:00,12.0,-17.0,30.53,West,264,12.0,16.0,25,0.00,,,0.06,,2013-02-07 17:21:00,
2013-02-07 12:32:00,13.0,-17.0,30.53,NNW,333,10.0,19.0,24,0.00,,,0.06,,2013-02-07 17:32:00,
2013-02-07 12:52:00,13.0,-16.0,30.53,WNW,289,10.0,20.0,25,0.00,,,0.06,,2013-02-07 17:52:00,
2013-02-07 13:02:00,13.0,-15.0,30.53,NNW,327,7.0,16.0,26,0.00,,,0.06,,2013-02-07 18:02:00,
2013-02-07 13:11:00,13.0,-15.0,30.53,NNW,327,7.0,16.0,26,0.00,,,0.06,,2013-02-07 18:11:00,
2013-02-07 13:23:00,14.0,-16.0,30.52,West,275,10.0,18.0,24,0.00,,,0.06,,2013-02-07 18:23:00,
2013-02-07 13:32:00,13.0,-17.0,30.52,WNW,299,10.0,16.0,24,0.00,,,0.06,,2013-02-07 18:32:00,
2013-02-07 13:52:00,13.0,-18.0,30.52,NW,311,9.0,19.0,23,0.00,,,0.06,,2013-02-07 18:52:00,
2013-02-07 14:01:00,14.0,-19.0,30.52,West,279,13.0,21.0,21,0.00,,,0.06,,2013-02-07 19:01:00,
2013-02-07 14:22:00,14.0,-19.0,30.52,North,350,12.0,18.0,21,0.00,,,0.06,,2013-02-07 19:22:00,
2013-02-07 14:32:00,14.0,-18.0,30.52,WNW,298,9.0,18.0,22,0.00,,,0.04,,2013-02-07 19:32:00,
2013-02-07 14:52:00,14.0,-18.0,30.52,WNW,297,11.0,22.0,22,0.00,,,0.04,,2013-02-07 19:52:00,
2013-02-07 15:01:00,14.0,-17.0,30.52,WNW,287,9.0,17.0,23,0.00,,,0.04,,2013-02-07 20:01:00,
2013-02-07 15:22:00,14.0,-17.0,30.52,NW,316,10.0,15.0,23,0.00,,,0.04,,2013-02-07 20:22:00,
2013-02-07 15:32:00,14.0,-17.0,30.53,NW,304,9.0,16.0,23,0.00,,,0.01,,2013-02-07 20:32:00,
2013-02-07 15:42:00,14.0,-17.0,30.53,NW,304,9.0,16.0,23,0.00,,,0.01,,2013-02-07 20:42:00,
2013-02-07 15:52:00,13.0,-18.0,30.53,North,351,8.0,14.0,23,0.00,,,0.01,,2013-02-07 20:52:00,
2013-02-07 16:02:00,13.0,-18.0,30.53,NW,311,10.0,14.0,23,0.00,,,0.01,,2013-02-07 21:02:00,
2013-02-07 16:22:00,13.0,-18.0,30.54,WNW,301,9.0,13.0,23,0.00,,,0.01,,2013-02-07 21:22:00,
2013-02-07 16:32:00,11.0,-16.0,30.54,NW,315,6.0,10.0,27,0.00,,,0.00,,2013-02-07 21:32:00,
2013-02-07 16:42:00,11.0,-16.0,30.54,NW,315,6.0,10.0,27,0.00,,,0.00,,2013-02-07 21:42:00,
2013-02-07 16:52:00,11.0,-18.0,30.54,NW,313,4.0,11.0,25,0.00,,,0.00,,2013-02-07 21:52:00,
2013-02-07 17:02:00,10.0,-17.0,30.55,NNW,329,3.0,7.0,27,0.00,,,0.00,,2013-02-07 22:02:00,
2013-02-07 17:11:00,10.0,-17.0,30.55,NNW,329,3.0,7.0,27,0.00,,,0.00,,2013-02-07 22:11:00,
2013-02-07 17:21:00,8.0,-16.0,30.55,North,351,4.0,7.0,31,0.00,,,0.00,,2013-02-07 22:21:00,
2013-02-07 17:32:00,8.0,-17.0,30.56,NNE,15,3.0,5.0,30,0.00,,,0.00,,2013-02-07 22:32:00,
2013-02-07 17:42:00,8.0,-17.0,30.56,NNE,15,3.0,5.0,30,0.00,,,0.00,,2013-02-07 22:42:00,
2013-02-07 17:52:00,8.0,-19.0,30.56,NNW,345,4.0,5.0,27,0.00,,,0.00,,2013-02-07 22:52:00,
2013-02-07 18:02:00,7.0,-18.0,30.57,North,355,4.0,6.0,29,0.00,,,0.00,,2013-02-07 23:02:00,
2013-02-07 18:22:00,7.0,-19.0,30.57,North,360,2.0,5.0,28,0.00,,,0.00,,2013-02-07 23:22:00,
2013-02-07 18:32:00,5.0,-19.0,30.58,North,350,4.0,6.0,31,0.00,,,0.00,,2013-02-07 23:32:00,
2013-02-07 18:52:00,6.0,-17.0,30.57,North,11,4.0,6.0,33,0.00,,,0.00,,2013-02-07 23:52:00,
2013-02-07 19:02:00,3.0,-13.0,30.58,North,355,5.0,8.0,46,0.00,,,0.00,,2013-02-08 00:02:00,
2013-02-07 19:11:00,3.0,-13.0,30.58,North,355,5.0,8.0,46,0.00,,,0.00,,2013-02-08 00:11:00,
2013-02-07 19:22:00,5.0,-17.0,30.58,North,355,4.0,7.0,34,0.00,,,0.00,,2013-02-08 00:22:00,
2013-02-07 19:32:00,4.0,-17.0,30.58,North,355,6.0,8.0,35,0.00,,,0.00,,2013-02-08 00:32:00,
2013-02-07 19:52:00,6.0,-18.0,30.58,North,355,3.0,7.0,31,0.00,,,0.00,,2013-02-08 00:52:00,
2013-02-07 20:01:00,3.0,-11.0,30.58,NE,40,4.0,8.0,50,0.00,,,0.00,,2013-02-08 01:01:00,
2013-02-07 20:11:00,3.0,-11.0,30.58,NE,40,4.0,8.0,50,0.00,,,0.00,,2013-02-08 01:11:00,
2013-02-07 20:21:00,4.0,-12.0,30.58,NNE,28,5.0,7.0,46,0.00,,,0.00,,2013-02-08 01:21:00,
2013-02-07 20:32:00,3.0,-11.0,30.60,NNE,19,4.0,8.0,52,0.00,,,0.00,,2013-02-08 01:32:00,
2013-02-07 20:42:00,3.0,-11.0,30.60,NNE,19,4.0,8.0,52,0.00,,,0.00,,2013-02-08 01:42:00,
2013-02-07 20:51:00,4.0,-12.0,30.60,NNE,21,3.0,9.0,46,0.00,,,0.00,,2013-02-08 01:51:00,
2013-02-07 21:01:00,6.0,-14.0,30.60,NNE,19,3.0,7.0,38,0.00,,,0.00,,2013-02-08 02:01:00,
2013-02-07 21:11:00,6.0,-14.0,30.60,NNE,19,3.0,7.0,38,0.00,,,0.00,,2013-02-08 02:11:00,
2013-02-07 21:21:00,5.0,-14.0,30.61,NE,39,1.0,6.0,39,0.00,,,0.00,,2013-02-08 02:21:00,
2013-02-07 21:32:00,4.0,-13.0,30.61,NE,34,4.0,8.0,43,0.00,,,0.00,,2013-02-08 02:32:00,
2013-02-07 21:42:00,4.0,-13.0,30.61,NE,34,4.0,8.0,43,0.00,,,0.00,,2013-02-08 02:42:00,
2013-02-07 21:52:00,4.0,-11.0,30.60,NE,49,6.0,10.0,49,0.00,,,0.00,,2013-02-08 02:52:00,
2013-02-07 22:02:00,5.0,-9.0,30.60,NE,36,6.0,11.0,52,0.00,,,0.00,,2013-02-08 03:02:00,
2013-02-07 22:12:00,5.0,-9.0,30.60,NE,36,6.0,11.0,52,0.00,,,0.00,,2013-02-08 03:12:00,
2013-02-07 22:22:00,6.0,-8.0,30.60,NE,53,5.0,9.0,51,0.00,,,0.00,,2013-02-08 03:22:00,
2013-02-07 22:32:00,7.0,-7.0,30.60,ENE,61,7.0,12.0,52,0.00,,,0.00,,2013-02-08 03:32:00,
2013-02-07 22:42:00,7.0,-7.0,30.60,ENE,61,7.0,12.0,52,0.00,,,0.00,,2013-02-08 03:42:00,
2013-02-07 22:52:00,7.0,-7.0,30.59,NE,46,8.0,14.0,52,0.00,,,0.00,,2013-02-08 03:52:00,
2013-02-07 23:02:00,7.0,-10.0,30.60,NNE,29,3.0,15.0,45,0.00,,,0.00,,2013-02-08 04:02:00,
2013-02-07 23:11:00,7.0,-10.0,30.60,NNE,29,3.0,15.0,45,0.00,,,0.00,,2013-02-08 04:11:00,
2013-02-07 23:21:00,7.0,-10.0,30.61,NNE,16,6.0,12.0,44,0.00,,,0.00,,2013-02-08 04:21:00,
2013-02-07 23:32:00,7.0,-9.0,30.60,NNE,17,7.0,12.0,47,0.00,,,0.00,,2013-02-08 04:32:00,
2013-02-07 23:42:00,7.0,-9.0,30.60,NNE,17,7.0,12.0,47,0.00,,,0.00,,2013-02-08 04:42:00,
2013-02-07 23:51:00,7.0,-9.0,30.60,NE,55,6.0,10.0,47,0.00,,,0.00,,2013-02-08 04:51:00,